[[{"header":{"parameterUnit":"m.s-1","parameterCategory":1,"la1":30.2991,"la2":30.254,"lo1":-89.0895,"lo2":-89.0444,"dy":0.0017,"dx":0.0017,"nx":28,"ny":28,"refTime":"2024-05-01T09:00:00:Z","depth":0,"parameterNumber":2,"parameterNumberName":"U-component_of_WINDS"},"data":[0,0,0,0,0,0,0,0,0,0,0,0,0,0,0,0,0,0,0,0,0,0,0,0,0,0,0,0,0,0,0,0,0,0,0,0,0,0,0,0,0,0,0,0,0,0,0,0,0,0,0,0,0,0,0,0,0,0,-1.8004,-1.8003,0,-1.7905,-1.7903,-1.7902,-1.7829,-1.7829,-1.7828,-1.7827,-1.7723,-1.7721,-1.7718,0,0,0,0,0,0,0,0,0,0,0,0,0,-1.8129,-1.8127,-1.8004,-1.8003,-1.8002,-1.7905,-1.7903,-1.7902,-1.7829,-1.7829,-1.7828,-1.7827,-1.7723,-1.7721,-1.7718,0,0,0,0,0,0,0,0,0,0,0,0,0,-1.8057,-1.8127,-1.8004,-1.7954,-1.7948,-1.7905,-1.7903,-1.7902,-1.783,-1.7829,-1.7828,-1.7827,-1.7724,-1.7721,-1.7718,-1.7716,0,0,-1.7708,-1.7706,0,0,0,0,0,0,0,0,-1.8061,-1.8052,-1.7962,-1.7957,-1.7951,-1.7878,-1.7909,-1.7839,-1.783,-1.7875,-1.7827,-1.7826,-1.7775,-1.7768,-1.7751,-1.7711,-1.7707,-1.7707,-1.7705,-1.7704,-1.7703,0,0,0,0,0,0,0,-1.8066,-1.8056,-1.7965,-1.7961,-1.7954,-1.7935,-1.7924,-1.7895,-1.7831,-1.7871,-1.7865,-1.7854,-1.7772,-1.7754,-1.7748,-1.7705,-1.7707,-1.7705,-1.7702,-1.7701,-1.766,-1.766,0,0,0,0,0,0,-1.8079,-1.8061,-1.7968,-1.7962,-1.8005,-1.7934,-1.7921,-1.7903,-1.7831,-1.782,-1.7855,-1.7851,-1.776,-1.7752,-1.7744,-1.7737,-1.7704,-1.7701,-1.7699,-1.7659,-1.766,-1.7661,0,0,0,0,0,0,-1.8082,-1.8072,-1.7972,-1.801,-1.7996,-1.7933,-1.7912,-1.7901,-1.7883,-1.782,-1.7808,-1.7849,-1.7759,-1.7749,-1.7724,-1.7733,-1.7699,-1.7696,-1.7658,-1.7659,-1.766,-1.7724,0,0,0,0,0,0,-1.8086,-1.8073,-1.8072,-1.801,-1.7994,-1.7954,-1.7913,-1.79,-1.7878,-1.7872,-1.7811,-1.78,-1.7758,-1.7729,-1.7721,-1.7728,-1.7694,-1.7657,-1.7658,-1.766,-1.7721,-1.7728,-1.7733,0,0,0,0,0,-1.8091,-1.8093,-1.8073,-1.8062,-1.7991,-1.7955,-1.7945,-1.7897,-1.7879,-1.7878,-1.7837,-1.7802,-1.7734,-1.7727,-1.7717,-1.7723,-1.7656,-1.7658,-1.766,-1.7718,-1.7727,-1.7733,0,0,0,0,0,0,-1.8157,-1.8084,-1.806,-1.8043,-1.8006,-1.7943,-1.7939,-1.7907,-1.7874,-1.7869,-1.7811,-1.7797,-1.7779,-1.7748,-1.7743,-1.7718,-1.769,-1.769,-1.7738,-1.7746,-1.7752,-1.7759,-1.7691,0,0,0,0,0,-1.817,-1.8147,-1.8084,-1.8075,-1.8058,-1.8002,-1.7984,-1.7951,-1.7909,-1.7893,-1.785,-1.7811,-1.778,-1.7761,-1.773,-1.7717,-1.7702,-1.7716,-1.7722,-1.7728,-1.7728,-1.7719,-1.7725,-1.7667,-1.7667,-1.7667,0,0,-1.8195,-1.8153,-1.8141,-1.8087,-1.8054,-1.8031,-1.7989,-1.7966,-1.7948,-1.7889,-1.7863,-1.7831,-1.7783,-1.7765,-1.7754,-1.7739,-1.7741,-1.773,-1.7735,-1.7732,-1.7722,-1.7728,-1.7733,-1.7669,-1.7668,-1.7668,0,0,-1.823,-1.8196,-1.8184,-1.8153,-1.8104,-1.8067,-1.8065,-1.8007,-1.7983,-1.7957,-1.7913,-1.789,-1.7839,-1.7807,-1.7784,-1.7809,-1.7775,-1.78,-1.7832,-1.7824,-1.7829,-1.7832,-1.7841,-1.7845,-1.7801,-1.7801,-1.7801,0,-1.8267,-1.8231,-1.8182,-1.8163,-1.814,-1.8087,-1.8075,-1.8047,-1.799,-1.7976,-1.7959,-1.7895,-1.7859,-1.7832,-1.7839,-1.7822,-1.7817,-1.7806,-1.7832,-1.7835,-1.7838,-1.7846,-1.7849,-1.7805,-1.7804,-1.7804,-1.7804,0,-1.828,-1.8256,-1.8253,-1.8201,-1.8178,-1.8163,-1.8111,-1.8094,-1.8063,-1.8028,-1.8002,-1.7957,-1.7916,-1.7908,-1.7877,-1.7877,-1.7869,-1.7843,-1.7814,-1.7848,-1.7854,-1.7857,-1.7809,-1.7808,-1.7807,-1.7806,0,0,-1.8352,-1.8275,-1.8274,-1.825,-1.8194,-1.8174,-1.8156,-1.8117,-1.8104,-1.8067,-1.805,-1.8009,-1.7986,-1.796,-1.7925,-1.7919,-1.7941,-1.7893,-1.7891,-1.7904,-1.7939,-1.7959,-1.7963,-1.792,-1.792,-1.792,-1.7943,0,-1.8378,-1.8344,-1.8299,-1.828,-1.8258,-1.8208,-1.8192,-1.8156,-1.8123,-1.8099,-1.8062,-1.8034,-1.8005,-1.7989,-1.798,-1.7941,-1.7948,-1.7938,-1.7903,-1.7902,-1.7916,-1.7966,-1.7986,-1.8011,-1.7946,-1.7946,-1.7946,0,-1.8402,-1.837,-1.8349,-1.8295,-1.8284,-1.8271,-1.8233,-1.821,-1.8168,-1.8144,-1.8117,-1.808,-1.8058,-1.8033,-1.8003,-1.7997,-1.798,-1.7959,-1.7959,-1.7953,-1.7926,-1.7962,-1.8017,-1.8021,-1.795,-1.7949,-1.7949,0,-1.8457,-1.8408,-1.8389,-1.837,-1.8307,-1.83,-1.8273,-1.823,-1.821,-1.8176,-1.8162,-1.8126,-1.8106,-1.8079,-1.8033,-1.8019,-1.8007,-1.7978,-1.7987,-1.7988,-1.7986,-1.7986,-1.8039,-1.7976,-1.7976,-1.7976,-1.7976,0,-1.849,-1.8479,-1.8413,-1.8401,-1.8388,-1.8337,-1.8325,-1.8294,-1.8256,-1.8237,-1.8192,-1.8175,-1.8116,-1.8092,-1.8056,-1.8037,-1.8028,-1.8008,-1.7998,-1.8012,-1.8014,-1.7999,-1.7996,-1.7977,-1.7977,-1.7977,-1.7976,0,-1.8548,-1.8503,-1.848,-1.8423,-1.8408,-1.8401,-1.8352,-1.8338,-1.8304,-1.8281,-1.8272,-1.8217,-1.8187,-1.8139,-1.8094,-1.807,-1.8057,-1.8041,-1.8072,-1.8066,-1.8077,-1.8077,-1.8121,-1.8125,-1.8061,-1.8061,-1.8062,0,-1.8572,-1.8563,-1.8505,-1.849,-1.8465,-1.8441,-1.8421,-1.8371,-1.8352,-1.8304,-1.8297,-1.8263,-1.8234,-1.8188,-1.8144,-1.8109,-1.8092,-1.811,-1.8087,-1.8101,-1.8092,-1.8093,-1.8092,-1.8116,-1.8117,-1.8117,-1.8118,0,-1.8619,-1.8598,-1.8571,-1.8536,-1.8514,-1.8484,-1.8452,-1.8442,-1.8385,-1.8366,-1.8335,-1.8312,-1.8268,-1.8235,-1.8195,-1.8166,-1.8133,-1.8126,-1.8126,-1.8139,-1.8157,-1.8148,-1.8086,-1.8125,-1.8124,-1.8124,-1.8123,-1.8123,-1.866,-1.865,-1.8608,-1.858,-1.8551,-1.8523,-1.8508,-1.8472,-1.8446,-1.8406,-1.8379,-1.835,-1.8308,-1.8251,-1.8225,-1.8202,-1.8187,-1.8187,-1.8187,-1.8188,-1.8193,-1.8162,-1.8194,-1.8194,-1.8194,-1.8193,-1.8193,0,-1.8705,-1.8676,-1.8651,-1.8608,-1.8586,-1.8558,-1.8521,-1.8504,-1.848,-1.8445,-1.8417,-1.8382,-1.8351,-1.8305,-1.827,-1.826,-1.8244,-1.8253,-1.8253,-1.8247,-1.8208,-1.8211,-1.8267,-1.8267,-1.8267,-1.8266,-1.8266,-1.8266,-1.8725,-1.8707,-1.8681,-1.8647,-1.8618,-1.8591,-1.8572,-1.8546,-1.8518,-1.8481,-1.8455,-1.8426,-1.8387,-1.8349,-1.8319,-1.8306,-1.8295,-1.8309,-1.8291,-1.8256,-1.8249,-1.8243,-1.8246,-1.8307,-1.8307,-1.8332,-1.8332,-1.8332]},{"header":{"parameterUnit":"m.s-1","parameterCategory":1,"la1":30.2991,"la2":30.254,"lo1":-89.0895,"lo2":-89.0444,"dy":0.0017,"dx":0.0017,"nx":28,"ny":28,"refTime":"2024-05-01T09:00:00:Z","depth":0,"parameterNumber":3,"parameterNumberName":"V-component_of_WINDS"},"data":[0,0,0,0,0,0,0,0,0,0,0,0,0,0,0,0,0,0,0,0,0,0,0,0,0,0,0,0,0,0,0,0,0,0,0,0,0,0,0,0,0,0,0,0,0,0,0,0,0,0,0,0,0,0,0,0,0,0,1.9287,1.9286,0,1.9226,1.9225,1.9224,1.9238,1.9239,1.924,1.9241,1.9173,1.917,1.9167,0,0,0,0,0,0,0,0,0,0,0,0,0,1.9411,1.9409,1.9287,1.9286,1.9285,1.9226,1.9225,1.9224,1.9237,1.9239,1.924,1.9242,1.9174,1.917,1.9167,0,0,0,0,0,0,0,0,0,0,0,0,0,1.9354,1.9408,1.9287,1.9285,1.9284,1.9226,1.9225,1.9224,1.9237,1.9239,1.9241,1.9242,1.9175,1.9171,1.9166,1.9105,0,0,1.9153,1.9151,0,0,0,0,0,0,0,0,1.9357,1.9349,1.9286,1.9285,1.9284,1.9241,1.9244,1.9184,1.9237,1.9255,1.9241,1.9243,1.9194,1.9188,1.9173,1.9102,1.9099,1.9153,1.915,1.9148,1.9147,0,0,0,0,0,0,0,1.9361,1.9352,1.9262,1.9285,1.9284,1.9286,1.928,1.9232,1.9215,1.9253,1.9254,1.9247,1.9193,1.9177,1.9171,1.9098,1.9153,1.9149,1.9146,1.9145,1.8974,1.8972,0,0,0,0,0,0,1.9367,1.9355,1.9264,1.9261,1.9326,1.9282,1.9275,1.9253,1.9216,1.9212,1.9246,1.9248,1.9183,1.9176,1.9169,1.9094,1.9148,1.9144,1.9142,1.8976,1.8973,1.8971,0,0,0,0,0,0,1.9369,1.9358,1.9267,1.9308,1.9297,1.9278,1.9253,1.9251,1.9234,1.921,1.9206,1.9232,1.9184,1.9175,1.9121,1.9092,1.9142,1.9138,1.8978,1.8975,1.8972,1.8944,0,0,0,0,0,0,1.9373,1.9359,1.9336,1.9308,1.9295,1.9221,1.9251,1.9248,1.9227,1.923,1.9196,1.9192,1.9185,1.9128,1.9117,1.9087,1.9135,1.898,1.8976,1.8973,1.8947,1.8941,1.8935,0,0,0,0,0,1.9377,1.933,1.9335,1.9324,1.9266,1.922,1.9212,1.9206,1.9225,1.9201,1.9186,1.9193,1.9097,1.9122,1.911,1.9078,1.8982,1.8978,1.8973,1.895,1.8942,1.8935,0,0,0,0,0,0,1.9353,1.9326,1.9332,1.9274,1.9249,1.9222,1.9192,1.9197,1.9165,1.9169,1.9162,1.9154,1.9099,1.9084,1.9111,1.9017,1.9042,1.9035,1.9029,1.9021,1.9014,1.9018,1.9131,0,0,0,0,0,1.9341,1.9308,1.9285,1.9236,1.9224,1.921,1.919,1.9188,1.9161,1.915,1.9131,1.9104,1.9068,1.9043,1.9009,1.8946,1.8939,1.8919,1.8912,1.8907,1.89,1.8866,1.8857,1.8957,1.8957,1.8957,0,0,1.9316,1.9297,1.9276,1.9231,1.9212,1.9175,1.9201,1.9161,1.9134,1.9144,1.9092,1.9077,1.9046,1.8988,1.8961,1.8973,1.8872,1.8901,1.8898,1.8894,1.8861,1.8851,1.8843,1.8954,1.8954,1.8955,0,0,1.9251,1.9234,1.9191,1.9172,1.9144,1.9135,1.9125,1.9098,1.9089,1.9038,1.9044,1.9011,1.8949,1.8927,1.8907,1.8837,1.8842,1.8826,1.8791,1.8758,1.875,1.8743,1.8717,1.8708,1.882,1.882,1.882,0,1.9222,1.917,1.9168,1.9129,1.9108,1.9118,1.9075,1.9056,1.9016,1.9001,1.9016,1.8939,1.8919,1.8856,1.8839,1.8823,1.881,1.8828,1.8752,1.8745,1.8738,1.8713,1.8703,1.8818,1.8818,1.8818,1.8818,0,1.9136,1.9099,1.9068,1.9032,1.9009,1.8967,1.8958,1.8935,1.8936,1.8925,1.8873,1.885,1.8811,1.8796,1.8796,1.8733,1.8741,1.8754,1.8779,1.8727,1.8703,1.8693,1.8815,1.8816,1.8816,1.8817,0,0,1.9051,1.9017,1.9006,1.899,1.896,1.8931,1.889,1.8854,1.8834,1.8807,1.8772,1.872,1.8733,1.871,1.8708,1.8679,1.8624,1.8695,1.8694,1.8682,1.8553,1.8542,1.8531,1.8628,1.8627,1.8625,1.8555,0,1.8983,1.8912,1.891,1.8845,1.8811,1.8821,1.8785,1.8763,1.8753,1.8721,1.871,1.8673,1.8692,1.8679,1.8651,1.8637,1.8597,1.8642,1.8593,1.8592,1.8599,1.8519,1.8507,1.8442,1.8546,1.8544,1.8543,0,1.8893,1.8866,1.8797,1.8774,1.876,1.8728,1.8695,1.8666,1.864,1.8635,1.8612,1.8614,1.8571,1.8599,1.854,1.857,1.855,1.854,1.8538,1.8531,1.8563,1.8509,1.8421,1.8411,1.8529,1.853,1.8531,0,1.8837,1.8783,1.8736,1.8722,1.8693,1.8671,1.8657,1.8634,1.8613,1.8584,1.857,1.8537,1.8517,1.8491,1.8483,1.8505,1.8423,1.8451,1.8416,1.8417,1.8397,1.8398,1.8303,1.8387,1.8387,1.8387,1.8388,0,1.8759,1.8717,1.871,1.8681,1.8633,1.8632,1.8585,1.8573,1.8553,1.852,1.8527,1.8496,1.8489,1.8457,1.8451,1.8402,1.8393,1.8387,1.8385,1.8385,1.8386,1.8371,1.8375,1.8385,1.8385,1.8386,1.8386,0,1.8688,1.8682,1.863,1.8609,1.8603,1.8569,1.8549,1.8521,1.8513,1.8472,1.8462,1.8448,1.8411,1.8402,1.8356,1.8352,1.8294,1.8298,1.8303,1.8303,1.8268,1.8271,1.8159,1.8144,1.8239,1.8238,1.8237,0,1.8638,1.8606,1.8582,1.8562,1.8548,1.8515,1.8495,1.8492,1.847,1.844,1.8415,1.8378,1.8349,1.8288,1.8273,1.8239,1.8241,1.8204,1.8235,1.8236,1.8239,1.824,1.8237,1.8197,1.8196,1.8195,1.8195,0,1.855,1.8549,1.852,1.849,1.8466,1.8441,1.8418,1.8401,1.8395,1.837,1.8333,1.831,1.8265,1.8229,1.8194,1.8179,1.8185,1.8185,1.8175,1.8174,1.8178,1.8174,1.8285,1.8187,1.8188,1.8188,1.8189,1.8189,1.8487,1.8459,1.8438,1.8406,1.8389,1.8367,1.834,1.8329,1.8299,1.8263,1.8264,1.8223,1.8199,1.8154,1.8137,1.8105,1.8116,1.8101,1.8097,1.8093,1.809,1.8185,1.8098,1.8099,1.8099,1.8099,1.8099,0,1.8399,1.8386,1.8357,1.8325,1.8299,1.8311,1.8286,1.8263,1.8228,1.8206,1.8178,1.8135,1.81,1.8084,1.8049,1.8026,1.8028,1.8017,1.8018,1.8014,1.8082,1.8094,1.8016,1.8016,1.8016,1.8016,1.8016,1.8016,1.8349,1.8303,1.83,1.8246,1.8233,1.8195,1.818,1.816,1.8143,1.8096,1.8067,1.8058,1.8038,1.8002,1.7971,1.7967,1.7953,1.794,1.7937,1.8001,1.8009,1.8017,1.8028,1.7938,1.7937,1.7872,1.7871,1.7871]}]]